DELTA 1 DEB, 21290

Orbit data source: Space-Track

DELTA 1 DEB, 21290 is space debris in SSO originally from a launch on Thu, 12 Jun 1975 UTC launched from the Air Force Western Test Range (AFWTR). Debris objects in space refer to the collection of defunct objects orbiting the Earth. Examples of debris include non-operational satellites, rocket bodies, and fragments generated from explosions, collisions, or faulty payload assembly.

Loading next visibility...
Identifier
21290, 1975-052AB
Orbit
SSO
Country
Flag of USUS
Related business
Manufacturer
Unknown
Mission
Spacecraft
Bus & Motor
Unknown
Mass
Unknown
Launch date (UTC)
1975-06-12 (51 years ago)
Launch vehicle
Unknown
Launch site
Air Force Western Test Range (AFWTR)
Object type
Payload
Rocket body
Debris
Shape & HBR
Unknown shape, 0.1 m
Radar Cross Section
Small (<0.1 m²)

Expand to show TLE details & history
Last TLE update: 2 days ago

TLE from 2 days ago
0 DELTA 1 DEB
1 21290U 75052AB  26125.20695543 -.00000165  00000-0 -59125-3 0  9992
2 21290  99.5573  35.7352 0510673 258.1931 264.9174 12.43356945587498
Epoch: 2026-05-05T04:58Z
TLE epoch observation values (Epoch: 2026-05-05T04:58:00.949Z)
Latitude
22.35795°
Longitude
-77.90209°
Altitude
1,550.701 km
Speed
7.068 km/s
True Right ascension
14h 38m 44s
True Declination
22° 14' 58"
Sunlit
Object was in full shadow at epoch
Visualization orbit readout
Latitude
Unknown
Longitude
Unknown
Altitude
Unknown
Speed
Unknown
Apparent Right ascension
Unknown
Apparent Declination
Unknown
Sunlit
N/A
Visualization observer readout
Local Sidereal Time
18:16:31
Azimuth
Unknown
Elevation
Unknown
Doppler factor
Unknown
Orbital elements
Apogee altitude
1,891.63 km
Perigee altitude
1,088.038 km
Semi-major axis
7,867.971 km
Eccentricity
0.05107
Inclination
99.5573°
RAAN
35.7352°
Arg. of periapsis
258.1931°
True anomaly
259.13116°
Mean anomaly
264.9174°
Eccentric anomaly
262.01979°
Mean motion
3.10992 °/min
Orbital period
115.76 mins
BSTAR
-0.00059125
Loading maneuver chart data...
Computing Atmospheric mass density...
Loading historical data...
Loading historical data...
Loading historical data...
Loading historical data...
Loading historical data...
Loading historical data...
Loading historical data...

Documentation

Showing up to 5 results
|